SCVM

Viña del mar Airport

Airport
ICAO code
SCVM
IATA Code
KNA
Summary
ICAO Region
CARSAM
ICAO Territory
Location

Vina del Mar, Valparaiso

Serving
Vina del Mar
Elevation
461 ft
Coordinates
32° 56' 59" S , 71° 28' 43" W
KCC
Metar
SCVM 010100Z 27005KT 230V340 9999 SCT012 OVC016 14/12 Q1016

Airport serving Vina del Mar, Valparaiso, Chile.

Climatology

Mediterranean climate (Köppen climate classification Csb)

Runways

Designator Length Width Surface Rops
5/23 1756 30 ASP No/No

Airport map

Aerial View

SKYbrary Partners:

Safety knowledge contributed by: